Change the Weather History Date:

Sunday, May 4, 2014

  Actual Average Record
Temperature  
Mean Temperature 52 °F 49 °F  
Max Temperature 57 °F 58 °F 82 °F (2013)
Min Temperature 47 °F 41 °F 31 °F (1969)
Degree Days  
Heating Degree Days 13 16  
Month to date heating degree days 37 64  
Since 1 July heating degree days 4319 5106  
Cooling Degree Days 0 0  
Month to date cooling degree days 2 0  
Year to date cooling degree days 4 0  
Moisture  
Dew Point 49 °F    
Average Humidity 93    
Maximum Humidity 100    
Minimum Humidity 86    
Precipitation  
Precipitation 0.69 in 0.19 in 1.17 in (2001)
Month to date precipitation 1.89 0.77  
Year to date precipitation 50.17 44.41  
Sea Level Pressure  
Sea Level Pressure 29.71 in    
Wind  
Wind Speed 6 mph (SE)    
Max Wind Speed 13 mph    
Max Gust Speed 17 mph    
Visibility 4 miles    
Events Rain    
T = Trace of Precipitation, MM = Missing Value Source: NWS Daily Summary

Daily Weather History Graph

Daily Weather History Graph

Search for Another Location

Airport or City:

Trip Planner

Search our weather history database for the weather conditions in past years. The results will help you decide how hot, cold, wet, or windy it might be!

Date:

Astronomy

May. 04, 2014 Rise Set
Actual Time 5:55 AM PDT 8:35 PM PDT
Civil Twilight 5:20 AM PDT 9:10 PM PDT
Nautical Twilight 4:35 AM PDT 9:55 PM PDT
Astronomical Twilight 3:43 AM PDT 10:48 PM PDT
Moon 10:23 AM PDT (5/4) 12:46 AM PDT (5/4)
Length of Visible Light 15h 50m
Length of Day
14h 40m
Waxing Crescent, 28% of the Moon is Illuminated
May 4
Waxing Crescent
May 6
First Quarter
May 14
Full
May 21
Last Quarter
May 28
New

Hourly Weather History & Observations

Time (PDT) Temp. Windchill Dew Point Humidity Pressure Visibility Wind Dir Wind Speed Gust Speed Precip Events Conditions
12:16 AM 48.0 °F - 46.9 °F 96% 29.68 in 3.0 mi ESE 5.8 mph - 0.05 in Rain Rain
12:49 AM 48.2 °F - 46.4 °F 93% 29.68 in 9.0 mi East 3.5 mph - 0.11 in   Overcast
12:53 AM 48.0 °F - 46.9 °F 96% 29.68 in 8.0 mi East 4.6 mph - 0.11 in   Overcast
1:20 AM 48.0 °F - 46.9 °F 96% 29.67 in 4.0 mi ESE 4.6 mph - 0.03 in Rain Light Rain
1:53 AM 48.0 °F - 46.9 °F 96% 29.67 in 7.0 mi ESE 4.6 mph - 0.03 in   Overcast
2:37 AM 48.0 °F - 46.9 °F 96% 29.67 in 6.0 mi ESE 5.8 mph - 0.02 in Rain Light Rain
2:53 AM 46.9 °F - 46.0 °F 97% 29.67 in 4.0 mi ESE 5.8 mph - 0.03 in Rain Light Rain
3:35 AM 46.9 °F - 46.0 °F 97% 29.66 in 1.8 mi East 6.9 mph - 0.02 in Rain Rain
3:44 AM 46.9 °F - 46.0 °F 97% 29.65 in 3.0 mi East 6.9 mph - 0.03 in Rain Light Rain
3:53 AM 46.9 °F - 46.0 °F 97% 29.66 in 4.0 mi ESE 5.8 mph - 0.03 in Rain Light Rain
4:30 AM 46.9 °F - 46.0 °F 97% 29.66 in 2.5 mi East 4.6 mph - 0.02 in Rain Light Rain
4:46 AM 46.9 °F - 46.0 °F 97% 29.65 in 1.8 mi East 6.9 mph - 0.06 in Rain Heavy Rain
4:53 AM 46.9 °F - 46.0 °F 97% 29.65 in 2.0 mi East 6.9 mph - 0.09 in Rain Heavy Rain
5:30 AM 46.9 °F - 46.0 °F 97% 29.65 in 4.0 mi East 5.8 mph - 0.06 in Rain Light Rain
5:53 AM 46.9 °F - 46.0 °F 97% 29.65 in 4.0 mi East 5.8 mph - 0.07 in Rain Light Rain
6:25 AM 46.9 °F - 46.0 °F 97% 29.64 in 1.8 mi East 9.2 mph - 0.02 in Rain Heavy Rain
6:35 AM 46.9 °F - 46.0 °F 97% 29.64 in 3.0 mi East 9.2 mph - 0.05 in Rain Light Rain
6:53 AM 46.9 °F - 46.0 °F 97% 29.65 in 4.0 mi East 9.2 mph - 0.05 in Rain Light Rain
7:01 AM 46.9 °F - 46.0 °F 97% 29.65 in 1.8 mi East 6.9 mph - 0.02 in Rain Rain
7:14 AM 46.9 °F - 46.0 °F 97% 29.65 in 1.2 mi East 6.9 mph - 0.04 in Rain Light Rain
7:18 AM 46.9 °F - 46.9 °F 100% 29.65 in 2.0 mi East 5.8 mph - 0.05 in Rain Light Rain
7:28 AM 46.9 °F - 46.9 °F 100% 29.65 in 1.2 mi East 5.8 mph - 0.05 in Rain Rain
7:48 AM 46.4 °F 41.9 °F 46.4 °F 100% 29.65 in 2.0 mi ENE 9.2 mph - 0.09 in Rain Light Rain
7:53 AM 46.9 °F - 46.9 °F 100% 29.65 in 3.0 mi ENE 9.2 mph - 0.09 in Rain Light Rain
8:04 AM 48.0 °F - 46.9 °F 96% 29.65 in 1.8 mi East 10.4 mph - 0.01 in Rain Rain
8:30 AM 48.0 °F - 46.9 °F 96% 29.65 in 2.5 mi East 6.9 mph - 0.08 in Rain Light Rain
8:53 AM 48.9 °F - 48.0 °F 97% 29.65 in 1.8 mi ENE 5.8 mph - 0.10 in Rain Light Rain
9:02 AM 48.9 °F - 48.0 °F 97% 29.65 in 3.0 mi East 5.8 mph - 0.00 in Rain Light Rain
9:11 AM 48.9 °F - 48.0 °F 97% 29.66 in 2.5 mi ENE 5.8 mph - 0.00 in Rain Light Rain
9:47 AM 50.0 °F - 48.2 °F 94% 29.66 in 1.2 mi East 6.9 mph - 0.01 in Rain Light Rain
9:53 AM 50.0 °F - 48.0 °F 93% 29.66 in 1.2 mi ESE 6.9 mph - 0.02 in Rain Light Rain
10:01 AM 50.0 °F - 48.9 °F 96% 29.66 in 1.8 mi Variable 4.6 mph - 0.00 in Rain Rain
10:06 AM 50.0 °F - 48.9 °F 96% 29.67 in 1.2 mi East 6.9 mph - 0.01 in Rain Rain
10:10 AM 50.0 °F - 48.9 °F 96% 29.67 in 1.0 mi East 5.8 mph - 0.03 in Rain Rain
10:17 AM 50.0 °F - 48.9 °F 96% 29.67 in 1.8 mi East 6.9 mph - 0.04 in Rain Light Rain
10:19 AM 50.0 °F - 48.9 °F 96% 29.67 in 2.0 mi East 6.9 mph - 0.04 in Rain Light Rain
10:24 AM 50.0 °F - 48.9 °F 96% 29.67 in 3.0 mi ESE 6.9 mph - 0.04 in Rain Light Rain
10:28 AM 50.0 °F - 48.9 °F 96% 29.67 in 1.8 mi East 4.6 mph - 0.04 in Rain Light Rain
10:37 AM 50.0 °F - 48.9 °F 96% 29.67 in 1.0 mi East 8.1 mph - 0.05 in Rain Light Rain
10:46 AM 50.0 °F - 50.0 °F 100% 29.67 in 1.5 mi East 6.9 mph - 0.07 in Rain Light Rain
10:49 AM 51.8 °F - 50.0 °F 94% 29.68 in 2.5 mi East 5.8 mph - 0.07 in Rain Light Rain
10:53 AM 50.0 °F - 50.0 °F 100% 29.68 in 5.0 mi East 4.6 mph - 0.07 in Rain Light Rain
11:13 AM 51.1 °F - 50.0 °F 96% 29.68 in 1.8 mi East 6.9 mph - 0.00 in Rain Light Rain
11:21 AM 51.1 °F - 50.0 °F 96% 29.68 in 1.0 mi East 4.6 mph - 0.01 in Rain Light Rain
11:32 AM 52.0 °F - 51.1 °F 97% 29.68 in 2.5 mi Variable 4.6 mph - 0.03 in Rain Light Rain
11:39 AM 53.1 °F - 51.1 °F 93% 29.68 in 6.0 mi South 8.1 mph - 0.03 in   Overcast
11:49 AM 53.6 °F - 51.8 °F 94% 29.69 in 6.0 mi SSW 6.9 mph - 0.03 in   Overcast
11:53 AM 53.1 °F - 51.1 °F 93% 29.69 in 6.0 mi SW 9.2 mph - 0.03 in   Overcast
12:28 PM 54.0 °F - 52.0 °F 93% 29.70 in 6.0 mi SW 9.2 mph - N/A   Overcast
12:37 PM 54.0 °F - 52.0 °F 93% 29.70 in 3.0 mi SSW 9.2 mph - 0.00 in Rain Light Rain
12:53 PM 55.0 °F - 52.0 °F 89% 29.71 in 7.0 mi South 8.1 mph - 0.00 in   Overcast
12:57 PM 55.9 °F - 52.0 °F 87% 29.71 in 7.0 mi South 8.1 mph - N/A   Overcast
1:15 PM 55.0 °F - 50.0 °F 83% 29.71 in 7.0 mi SW 11.5 mph - N/A   Overcast
1:25 PM 55.0 °F - 51.1 °F 86% 29.71 in 7.0 mi SSW 8.1 mph - N/A   Overcast
1:43 PM 53.1 °F - 51.1 °F 93% 29.72 in 1.8 mi SW 9.2 mph - 0.00 in Rain Light Rain
1:51 PM 53.6 °F - 51.8 °F 94% 29.72 in 1.0 mi SW 9.2 mph - 0.02 in Rain Light Rain
1:53 PM 53.1 °F - 52.0 °F 96% 29.72 in 1.5 mi SW 6.9 mph - 0.02 in Rain Light Rain
1:57 PM 53.1 °F - 52.0 °F 96% 29.72 in 3.0 mi SSW 6.9 mph - 0.00 in Rain Light Rain
2:04 PM 54.0 °F - 53.1 °F 97% 29.72 in 5.0 mi Variable 5.8 mph - 0.00 in Rain Light Rain
2:14 PM 53.1 °F - 52.0 °F 96% 29.72 in 6.0 mi SSW 4.6 mph - 0.00 in   Overcast
2:48 PM 55.4 °F - 51.8 °F 88% 29.72 in 7.0 mi SW 11.5 mph - 0.00 in   Overcast
2:53 PM 55.0 °F - 51.1 °F 86% 29.73 in 7.0 mi SSW 10.4 mph - 0.00 in   Overcast
3:53 PM 55.0 °F - 51.1 °F 86% 29.73 in 7.0 mi SW 9.2 mph - N/A   Overcast
4:38 PM 54.0 °F - 51.1 °F 90% 29.74 in 7.0 mi SSW 8.1 mph - N/A   Overcast
4:53 PM 55.0 °F - 51.1 °F 86% 29.74 in 7.0 mi South 8.1 mph - N/A   Overcast
5:45 PM 53.1 °F - 50.0 °F 89% 29.75 in 1.5 mi SSW 8.1 mph - 0.00 in Rain Light Rain
5:48 PM 51.8 °F - 50.0 °F 94% 29.75 in 1.0 mi WSW 6.9 mph - 0.02 in Rain Heavy Rain
5:53 PM 53.1 °F - 51.1 °F 93% 29.75 in 1.2 mi SSW 5.8 mph - 0.03 in Rain Light Rain
5:55 PM 53.1 °F - 51.1 °F 93% 29.75 in 2.0 mi SSW 11.5 mph - 0.00 in Rain Light Rain
6:00 PM 54.0 °F - 52.0 °F 93% 29.75 in 6.0 mi SSW 9.2 mph - 0.00 in   Overcast
6:32 PM 53.1 °F - 51.1 °F 93% 29.76 in 2.5 mi SSW 6.9 mph - 0.00 in Rain Light Rain
6:40 PM 53.1 °F - 52.0 °F 96% 29.76 in 6.0 mi SW 5.8 mph - 0.00 in   Overcast
6:53 PM 53.1 °F - 50.0 °F 89% 29.76 in 6.0 mi SW 5.8 mph - 0.00 in   Overcast
7:34 PM 53.1 °F - 50.0 °F 89% 29.77 in 6.0 mi SSW 8.1 mph - N/A   Overcast
7:53 PM 52.0 °F - 50.0 °F 93% 29.77 in 6.0 mi SSW 4.6 mph - N/A   Overcast
8:00 PM 52.0 °F - 50.0 °F 93% 29.77 in 6.0 mi SW 6.9 mph - N/A   Overcast
8:53 PM 51.1 °F - 50.0 °F 96% 29.79 in 7.0 mi South 3.5 mph - 0.00 in   Overcast
9:02 PM 51.1 °F - 50.0 °F 96% 29.79 in 6.0 mi South 4.6 mph - N/A   Overcast
9:34 PM 51.1 °F - 50.0 °F 96% 29.80 in 7.0 mi Calm Calm - 0.00 in   Overcast
9:53 PM 51.1 °F - 50.0 °F 96% 29.81 in 6.0 mi Calm Calm - 0.00 in   Overcast
10:01 PM 51.1 °F - 50.0 °F 96% 29.81 in 7.0 mi Calm Calm - N/A   Overcast
10:08 PM 51.1 °F - 50.0 °F 96% 29.81 in 7.0 mi ESE 3.5 mph - N/A   Overcast
10:14 PM 51.1 °F - 50.0 °F 96% 29.81 in 6.0 mi Calm Calm - N/A   Overcast
10:21 PM 51.1 °F - 50.0 °F 96% 29.81 in 3.0 mi Calm Calm - 0.00 in Rain Light Rain
10:30 PM 51.1 °F - 50.0 °F 96% 29.81 in 2.5 mi Calm Calm - 0.00 in Rain Rain
10:43 PM 51.1 °F - 50.0 °F 96% 29.81 in 5.0 mi Calm Calm - 0.03 in Rain Light Rain
10:53 PM 51.8 °F - 50.0 °F 94% 29.81 in 6.0 mi Calm Calm - N/A   Overcast
11:13 PM 50.0 °F - 50.0 °F 100% 29.82 in 6.0 mi Calm Calm - N/A   Overcast
11:21 PM 50.0 °F - 50.0 °F 100% 29.82 in 6.0 mi Calm Calm - N/A   Overcast
11:32 PM 50.0 °F - 50.0 °F 100% 29.82 in 6.0 mi ESE 3.5 mph - N/A   Overcast
11:53 PM 50.0 °F - 50.0 °F 100% 29.83 in 6.0 mi Calm Calm - N/A   Overcast